[ hide orbit diagram ]
For accurate long-term ephemerides, please instead use our Horizons system.This orbit viewer was implemented using two-body methods, and hence should not be used for determining accurate long-term trajectories (over several years or decades) or planetary encounter circumstances.
Orbital Elements at Epoch 2459200.5 (2020-Dec-17.0) TDB
Reference: JPL 11 (heliocentric ecliptic J2000)
Element | Value | Uncertainty (1-sigma) | Units |
e | .04603424525918965 | 6.2453e-08 | |
a | 2.618593375335664 | 2.8747e-08 | au |
q | 2.498048405661373 | 1.5929e-07 | au |
i | 26.70674208494275 | 5.3247e-06 | deg |
node | 247.1775397664257 | 1.3743e-05 | deg |
peri | 298.6590757576062 | 6.8297e-05 | deg |
M | 199.1703810535619 | 7.1973e-05 | deg |
tp | 2459891.955214816966 (2022-Nov-08.45521482) | 0.00031333 | TDB |
period | 1547.748971643141 4.24 | 2.5487e-05 6.978e-08 | d yr |
n | .2325958579819389 | 3.8301e-09 | deg/d |
Q | 2.739138345009956 | 3.007e-08 | au |
|
| | Orbit Determination Parameters
Additional Information
|
[ show covariance matrix ]
Physical Parameter Table
Parameter |
Symbol |
Value |
Units |
Sigma |
Reference |
Notes |
absolute magnitude |
H |
16.0 |
|
n/a |
MPO494622 |
|
diameter |
diameter |
3.648 |
km |
0.116 |
urn:nasa:pds:neowise_diameters_albedos::2.0[mainbelt] (http://adsabs.harvard.edu/abs/2011ApJ...741...68M) |
|
geometric albedo |
albedo |
0.041 |
|
0.009 |
urn:nasa:pds:neowise_diameters_albedos::2.0[mainbelt] (http://adsabs.harvard.edu/abs/2011ApJ...741...68M) |
|
|
305573 (2008 XJ3) Discovered 2008-Dec-06 by BATTeRS at Bisei SG Center |
Reference: 20111110/Numbers.arc | Last Updated: 2011-11-14 |
|
[ show close-approach data ]
|